Regional Weather Roundup
Issued by NWS

Home | Current Version | Previous Version | Text Only | Print | Product List | Glossary On
Versions: 1 2 3 4 5 6 7 8 9 10 11 12 13 14 15 16 17 18 19 20 21 22 23 24 25 26 27 28 29 30 31 32 33 34 35 36 37 38 39 40 41 42 43 44 45 46 47 48 49 50
000
ASUS44 KBMX 030210
RWRAL

ALABAMA REGIONAL WEATHER ROUNDUP
NATIONAL WEATHER SERVICE BIRMINGHAM AL
900 PM CDT THU JUL 02 2015

NOTE: "FAIR" INDICATES FEW OR NO CLOUDS BELOW 12,000 FEET
WITH NO SIGNIFICANT WEATHER AND/OR OBSTRUCTIONS TO VISIBILITY.

THE REMARK "TC" DENOTES TEMPERATURE IN DEGREES CELSIUS.

ALZ001>011-014-016>018-020-030300-
NORTH ALABAMA

CITY           SKY/WX    TMP DP  RH WIND       PRES   REMARKS
MUSCLE SHOALS  CLOUDY    80  71  74 SW10      29.93R THUNDER
HUNTSVILLE     MOCLDY    80  71  74 SW10      29.92S
DECATUR        CLOUDY    80  70  71 SW10      29.93S
HALEYVILLE     FAIR      78  73  84 SW9       29.98R
GADSDEN        MOCLDY    86  64  48 SW5       29.95R
$$

ALZ012-013-022-023-030>036-040>044-030300-
WEST CENTRAL ALABAMA

CITY           SKY/WX    TMP DP  RH WIND       PRES   REMARKS
TUSCALOOSA     MOCLDY    80  73  79 S6        29.95S
$$

ALZ015-024>027-033>036-040>044-030300-
CENTRAL ALABAMA

CITY           SKY/WX    TMP DP  RH WIND       PRES   REMARKS
BIRMINGHAM     CLOUDY    81  71  71 SW10      29.99R
MONTGOMERY     MOCLDY    83  73  72 S5        29.98S
SHELBY CO ARPT CLOUDY    79  73  82 CALM      29.97S
MAXWELL AFB    NOT AVBL
GREENVILLE     FAIR      81  74  79 S5        30.00F
$$

ALZ019-021-028-029-037-038-045>048-030300-
EAST CENTRAL ALABAMA

CITY           SKY/WX    TMP DP  RH WIND       PRES   REMARKS
ANNISTON       CLOUDY    79  68  69 SW7       29.97S
ALEXANDER CITY CLOUDY    77  70  78 CALM      29.99S
AUBURN         MOCLDY    79  70  73 SW8       30.02S
$$

ALZ051>064-030300-
SOUTHWEST ALABAMA

CITY           SKY/WX    TMP DP  RH WIND       PRES   REMARKS
MOBILE         PTCLDY    79  76  90 S5        30.04S
BROOKLEY FIELD CLEAR     80  75  84 S3        30.04S
EVERGREEN      MOCLDY    82  75  79 S10       30.02S
$$

ALZ049-050-065>069-030300-
SOUTHEAST ALABAMA

CITY           SKY/WX    TMP DP  RH WIND       PRES   REMARKS
DOTHAN         MOCLDY    76  74  93 SW8       30.07S
OZARK          MOCLDY    77  75  95 S7        30.03S
TROY           MOCLDY    80  76  87 S6        30.02S
EUFAULA        FAIR      78  74  87 S3        30.00S
$$


USA.gov is the U.S. government's official web portal to all federal, state and local government web resources and services.